Вернуться в каталог

ONEWEB-0323

АктивенСвязьPO
NORAD 49106·PAYLOAD·🇬🇧 United Kingdom

Запущен Aug 21, 2021 с Baikonur Cosmodrome

Loading…

Ближайшие Пролёты (ближайшие 24 часа)

TLE

СвежийSource: CelesTrak SupGP

Эпоха: Sep 14, 2026, 13:34 UTC

1 49106C 21075AH  26257.56576389  .00001910  00000+0  53171-2 0  2572
2 49106  87.8985 332.9099 0002146 115.6958 350.8908 13.12437955    14

Отслеживайте ONEWEB-0323 в реальном времени с AllMySat

Download on the App Store